When you browse on this site, cookies collect data to enhance your experience and personalize the content and advertising you see.
Visit our Privacy Policy to learn more. By continuing to use the site, you agree to this use of cookies and data.
  • In Hungary
  • List of Countries
  • For 7 days
  • Water Temperature
  • Weather Map
  • News
  • Weather Widgets
  • user-avatar
    Login

    Hourly Weather Canet-Plage

    Today, 18 November, Monday

    Time Temperature Precipitation Wind Pressure Humidity
    00:00 +8°C° 0 mm 3 mps 755 mmHg 83%
    01:00 +8°C° 0 mm 3 mps 755 mmHg 83%
    02:00 +8°C° 0 mm 3 mps 755 mmHg 82%
    03:00 +8°C° 0 mm 3 mps 755 mmHg 81%
    04:00 +8°C° 0.2 mm 3 mps 756 mmHg 83%
    05:00 +7°C° 0.2 mm 4 mps 756 mmHg 85%
    06:00 +7°C° 0.2 mm 4 mps 757 mmHg 87%
    07:00 +7°C° 0.1 mm 4 mps 757 mmHg 87%
    08:00 +7°C° 0.1 mm 4 mps 757 mmHg 86%
    09:00 +8°C° 0.1 mm 4 mps 758 mmHg 85%
    10:00 +8°C° 0 mm 6 mps 758 mmHg 80%
    11:00 +8°C° 0 mm 7 mps 758 mmHg 74%
    12:00 +8°C° 0 mm 9 mps 758 mmHg 68%
    13:00 +8°C° 0 mm 9 mps 758 mmHg 66%
    14:00 +8°C° 0 mm 10 mps 758 mmHg 64%
    15:00 +8°C° 0 mm 11 mps 758 mmHg 62%
    16:00 +7°C° 0 mm 11 mps 758 mmHg 65%
    17:00 +6°C° 0 mm 11 mps 759 mmHg 68%
    18:00 +4°C° 0 mm 11 mps 759 mmHg 71%
    19:00 +4°C° 0 mm 11 mps 759 mmHg 71%
    20:00 +3°C° 0 mm 11 mps 760 mmHg 70%
    21:00 +3°C° 0 mm 11 mps 760 mmHg 70%
    22:00 +3°C° 0 mm 11 mps 760 mmHg 69%
    23:00 +3°C° 0 mm 11 mps 760 mmHg 69%

    Tomorrow, 19 November, Tuesday

    Time Temperature Precipitation Wind Pressure Humidity
    00:00 +3°C° 0 mm 11 mps 760 mmHg 68%
    01:00 +2°C° 0 mm 10 mps 760 mmHg 68%
    02:00 +2°C° 0 mm 10 mps 760 mmHg 68%
    03:00 +2°C° 0 mm 10 mps 760 mmHg 68%
    04:00 +2°C° 0 mm 9 mps 760 mmHg 68%
    05:00 +2°C° 0 mm 9 mps 760 mmHg 69%
    06:00 +2°C° 0 mm 8 mps 760 mmHg 69%
    07:00 +4°C° 0 mm 8 mps 761 mmHg 65%
    08:00 +5°C° 0 mm 8 mps 761 mmHg 61%
    09:00 +6°C° 0 mm 7 mps 761 mmHg 57%
    10:00 +8°C° 0 mm 7 mps 761 mmHg 54%
    11:00 +9°C° 0 mm 6 mps 760 mmHg 51%
    12:00 +10°C° 0 mm 5 mps 760 mmHg 49%
    13:00 +11°C° 0 mm 4 mps 760 mmHg 50%
    14:00 +11°C° 0 mm 4 mps 760 mmHg 52%
    15:00 +11°C° 0 mm 3 mps 760 mmHg 53%
    16:00 +10°C° 0 mm 3 mps 760 mmHg 60%
    17:00 +8°C° 0 mm 3 mps 760 mmHg 67%
    18:00 +6°C° 0 mm 2 mps 761 mmHg 73%
    19:00 +6°C° 0 mm 2 mps 761 mmHg 74%
    20:00 +6°C° 0 mm 2 mps 761 mmHg 75%
    21:00 +7°C° 0 mm 1 mps 761 mmHg 76%
    22:00 +7°C° 0 mm 1 mps 761 mmHg 76%
    23:00 +7°C° 0 mm 1 mps 761 mmHg 76%

    Day after tomorrow, 20 November, Wednesday

    Time Temperature Precipitation Wind Pressure Humidity
    00:00 +7°C° 0 mm 1 mps 761 mmHg 76%
    01:00 +6°C° 0 mm 2 mps 761 mmHg 76%
    02:00 +6°C° 0 mm 2 mps 760 mmHg 75%
    03:00 +5°C° 0 mm 3 mps 760 mmHg 75%
    04:00 +5°C° 0 mm 3 mps 760 mmHg 74%
    05:00 +4°C° 0 mm 3 mps 760 mmHg 74%
    06:00 +4°C° 0 mm 3 mps 759 mmHg 73%
    07:00 +5°C° 0 mm 3 mps 759 mmHg 69%
    08:00 +6°C° 0 mm 4 mps 759 mmHg 66%
    09:00 +7°C° 0 mm 4 mps 759 mmHg 62%
    10:00 +10°C° 0 mm 4 mps 759 mmHg 56%
    11:00 +10°C° 0 mm 5 mps 759 mmHg 50%
    12:00 +12°C° 0 mm 5 mps 758 mmHg 44%
    13:00 +11°C° 0 mm 6 mps 758 mmHg 47%
    14:00 +11°C° 0 mm 7 mps 758 mmHg 51%
    15:00 +12°C° 0 mm 7 mps 757 mmHg 54%
    16:00 +10°C° 0 mm 7 mps 757 mmHg 61%
    17:00 +9°C° 0 mm 6 mps 757 mmHg 68%
    18:00 +8°C° 0 mm 6 mps 757 mmHg 75%
    19:00 +8°C° 0 mm 6 mps 757 mmHg 74%
    20:00 +7°C° 0 mm 5 mps 757 mmHg 73%
    21:00 +7°C° 0 mm 5 mps 758 mmHg 72%
    22:00 +7°C° 0 mm 5 mps 757 mmHg 71%
    23:00 +7°C° 0 mm 5 mps 757 mmHg 70%

    21 November, Thursday

    Time Temperature Precipitation Wind Pressure Humidity
    00:00 +7°C° 0 mm 5 mps 757 mmHg 69%
    01:00 +6°C° 0 mm 5 mps 756 mmHg 70%
    02:00 +6°C° 0 mm 5 mps 756 mmHg 72%
    03:00 +5°C° 0 mm 4 mps 756 mmHg 73%
    04:00 +5°C° 0 mm 4 mps 756 mmHg 72%
    05:00 +5°C° 0 mm 4 mps 756 mmHg 72%
    06:00 +5°C° 0 mm 3 mps 756 mmHg 72%
    07:00 +8°C° 0 mm 3 mps 756 mmHg 67%
    08:00 +9°C° 0 mm 2 mps 756 mmHg 63%
    09:00 +10°C° 0 mm 2 mps 756 mmHg 59%
    10:00 +12°C° 0 mm 2 mps 756 mmHg 56%
    11:00 +14°C° 0 mm 2 mps 756 mmHg 54%
    12:00 +15°C° 0 mm 2 mps 756 mmHg 51%
    13:00 +15°C° 0 mm 2 mps 756 mmHg 53%
    14:00 +15°C° 0 mm 2 mps 755 mmHg 55%
    15:00 +15°C° 0 mm 2 mps 755 mmHg 57%
    16:00 +13°C° 0 mm 3 mps 755 mmHg 63%
    17:00 +11°C° 0 mm 3 mps 755 mmHg 68%
    18:00 +10°C° 0 mm 4 mps 756 mmHg 74%
    19:00 +10°C° 0 mm 4 mps 756 mmHg 75%
    20:00 +10°C° 0 mm 4 mps 756 mmHg 77%
    21:00 +8°C° 0 mm 4 mps 756 mmHg 78%
    22:00 +8°C° 0 mm 4 mps 756 mmHg 78%
    23:00 +8°C° 0 mm 4 mps 756 mmHg 78%

    22 November, Friday

    Time Temperature Precipitation Wind Pressure Humidity
    00:00 +8°C° 0 mm 4 mps 755 mmHg 78%
    01:00 +8°C° 0 mm 5 mps 755 mmHg 79%
    02:00 +8°C° 0 mm 5 mps 754 mmHg 80%
    03:00 +9°C° 0 mm 5 mps 754 mmHg 80%
    04:00 +9°C° 0 mm 5 mps 754 mmHg 82%
    05:00 +9°C° 0 mm 5 mps 753 mmHg 84%
    06:00 +9°C° 0 mm 5 mps 753 mmHg 86%
    07:00 +10°C° 0.1 mm 6 mps 753 mmHg 86%
    08:00 +11°C° 0.1 mm 6 mps 753 mmHg 86%
    09:00 +13°C° 0.1 mm 6 mps 753 mmHg 86%
    10:00 +13°C° 0.3 mm 6 mps 752 mmHg 86%
    11:00 +12°C° 0.3 mm 7 mps 752 mmHg 86%
    12:00 +14°C° 0.3 mm 7 mps 751 mmHg 86%
    13:00 +12°C° 0.6 mm 7 mps 751 mmHg 86%
    14:00 +12°C° 0.6 mm 7 mps 751 mmHg 87%
    15:00 +12°C° 0.6 mm 7 mps 751 mmHg 88%
    16:00 +12°C° 0.8 mm 5 mps 751 mmHg 88%
    17:00 +12°C° 0.8 mm 4 mps 751 mmHg 88%
    18:00 +12°C° 0.8 mm 2 mps 751 mmHg 88%
    19:00 +11°C° 0.3 mm 3 mps 751 mmHg 88%
    20:00 +10°C° 0.3 mm 3 mps 751 mmHg 87%
    21:00 +10°C° 0.3 mm 4 mps 751 mmHg 87%
    22:00 +10°C° 0 mm 3 mps 751 mmHg 86%
    23:00 +10°C° 0 mm 3 mps 750 mmHg 86%

    23 November, Saturday

    Time Temperature Precipitation Wind Pressure Humidity
    00:00 +10°C° 0 mm 3 mps 750 mmHg 85%
    01:00 +10°C° 0 mm 2 mps 750 mmHg 85%
    02:00 +10°C° 0 mm 2 mps 750 mmHg 85%
    03:00 +10°C° 0 mm 2 mps 750 mmHg 85%
    04:00 +9°C° 0 mm 2 mps 750 mmHg 85%
    05:00 +9°C° 0 mm 2 mps 750 mmHg 85%
    06:00 +8°C° 0 mm 2 mps 750 mmHg 85%
    07:00 +9°C° 0 mm 2 mps 750 mmHg 81%
    08:00 +10°C° 0 mm 3 mps 751 mmHg 76%
    09:00 +11°C° 0 mm 4 mps 751 mmHg 72%
    10:00 +10°C° 0 mm 6 mps 751 mmHg 70%
    11:00 +10°C° 0 mm 9 mps 751 mmHg 68%
    12:00 +9°C° 0 mm 11 mps 752 mmHg 66%
    13:00 +11°C° 0 mm 11 mps 752 mmHg 63%
    14:00 +11°C° 0 mm 11 mps 752 mmHg 60%
    15:00 +11°C° 0 mm 11 mps 753 mmHg 57%
    16:00 +11°C° 0 mm 10 mps 753 mmHg 59%
    17:00 +9°C° 0 mm 10 mps 754 mmHg 61%
    18:00 +8°C° 0 mm 10 mps 754 mmHg 63%
    19:00 +8°C° 0 mm 10 mps 755 mmHg 66%
    20:00 +8°C° 0 mm 10 mps 755 mmHg 69%
    21:00 +7°C° 0 mm 10 mps 756 mmHg 72%
    22:00 +7°C° 0 mm 10 mps 756 mmHg 73%
    23:00 +8°C° 0 mm 10 mps 757 mmHg 74%
    Show more